Location: Unspecified
(48.5670°N, 0.0000°E)
Time: 10:21:31
(UTC+00:00)

Transit 4A - Pass Details

Date: 31 August 2019
Orbit: 865 x 980 km, 66.8° (Epoch: 14 September)

Event Time Altitude Azimuth Distance (km) Brightness Sun altitude
Rises 21:07:35 0° 312° (NW) 3,671 12.6 -21.5°
Reaches altitude 10° 21:11:28 10° 335° (NNW) 2,706 11.3 -22.0°
Maximum altitude 21:15:00 15° 9° (N) 2,325 10.4 -22.4°
Drops below altitude 10° 21:18:30 10° 44° (NE) 2,663 10.3 -22.8°
Enters shadow 21:21:52 - 65° (ENE) 3,466 10.7 -23.2°
